Location: Whelan
(46.7841°N, 117.1166°W)
Time: 11:50:21
(UTC+00:00)

Envisat - Pass Details

Date: 20 April 2024
Orbit: 762 x 764 km, 98.3° (Epoch: 26 May)

Event Time Altitude Azimuth Distance (km) Brightness Sun altitude
Rises 10:37:39 0° 20° (NNE) 3,240 7.4 -20.2°
Reaches altitude 10° 10:40:07 10° 28° (NNE) 2,309 6.6 -19.9°
Maximum altitude 10:44:53 39° 97° (E) 1,128 4.2 -19.3°
Enters shadow 10:49:34 10° 166° (SSE) 2,279 5.2 -18.7°
